Data supplied by UK-AIR on 5/4/2008
All Data GMT hour ending 
Status: R =Ratified P=Provisional,P*=As supplied
,,Camden Kerbside,,,,,,,,,,,,,,,,,,,,,,,
Date,time,"PM10 particulate matter (Hourly measured)",status,unit,"Nitric oxide",status,unit,"Nitrogen dioxide",status,unit,"Nitrogen oxides as nitrogen dioxide",status,unit
 
01-01-2004,01:00,21,R,ugm-3 (GRAV EQ),18,R,ugm-3,36,R,ugm-3,63,R,ugm-3
01-01-2004,02:00,16,R,ugm-3 (GRAV EQ),11,R,ugm-3,25,R,ugm-3,42,R,ugm-3
01-01-2004,03:00,9,R,ugm-3 (GRAV EQ),15,R,ugm-3,36,R,ugm-3,59,R,ugm-3
01-01-2004,04:00,5,R,ugm-3 (GRAV EQ),13,R,ugm-3,34,R,ugm-3,53,R,ugm-3
01-01-2004,05:00,3,R,ugm-3 (GRAV EQ),8,R,ugm-3,27,R,ugm-3,38,R,ugm-3
01-01-2004,06:00,5,R,ugm-3 (GRAV EQ),6,R,ugm-3,25,R,ugm-3,34,R,ugm-3
01-01-2004,07:00,5,R,ugm-3 (GRAV EQ),5,R,ugm-3,27,R,ugm-3,34,R,ugm-3
01-01-2004,08:00,7,R,ugm-3 (GRAV EQ),8,R,ugm-3,32,R,ugm-3,44,R,ugm-3
01-01-2004,09:00,7,R,ugm-3 (GRAV EQ),15,R,ugm-3,46,R,ugm-3,69,R,ugm-3
01-01-2004,10:00,10,R,ugm-3 (GRAV EQ),35,R,ugm-3,61,R,ugm-3,115,R,ugm-3
01-01-2004,11:00,14,R,ugm-3 (GRAV EQ),48,R,ugm-3,67,R,ugm-3,139,R,ugm-3
01-01-2004,12:00,14,R,ugm-3 (GRAV EQ),34,R,ugm-3,59,R,ugm-3,111,R,ugm-3
01-01-2004,13:00,14,R,ugm-3 (GRAV EQ),31,R,ugm-3,59,R,ugm-3,107,R,ugm-3
01-01-2004,14:00,16,R,ugm-3 (GRAV EQ),29,R,ugm-3,57,R,ugm-3,101,R,ugm-3
01-01-2004,15:00,17,R,ugm-3 (GRAV EQ),29,R,ugm-3,59,R,ugm-3,103,R,ugm-3
01-01-2004,16:00,12,R,ugm-3 (GRAV EQ),19,R,ugm-3,48,R,ugm-3,76,R,ugm-3
01-01-2004,17:00,14,R,ugm-3 (GRAV EQ),24,R,ugm-3,50,R,ugm-3,86,R,ugm-3
01-01-2004,18:00,20,R,ugm-3 (GRAV EQ),21,R,ugm-3,50,R,ugm-3,82,R,ugm-3
01-01-2004,19:00,21,R,ugm-3 (GRAV EQ),20,R,ugm-3,48,R,ugm-3,78,R,ugm-3
01-01-2004,20:00,20,R,ugm-3 (GRAV EQ),14,R,ugm-3,40,R,ugm-3,61,R,ugm-3
01-01-2004,21:00,16,R,ugm-3 (GRAV EQ),9,R,ugm-3,40,R,ugm-3,53,R,ugm-3
01-01-2004,22:00,16,R,ugm-3 (GRAV EQ),8,R,ugm-3,38,R,ugm-3,50,R,ugm-3
01-01-2004,23:00,20,R,ugm-3 (GRAV EQ),24,R,ugm-3,48,R,ugm-3,84,R,ugm-3
01-01-2004,24:00,20,R,ugm-3 (GRAV EQ),41,R,ugm-3,57,R,ugm-3,120,R,ugm-3
02-01-2004,01:00,20,R,ugm-3 (GRAV EQ),26,R,ugm-3,46,R,ugm-3,86,R,ugm-3
02-01-2004,02:00,18,R,ugm-3 (GRAV EQ),13,R,ugm-3,32,R,ugm-3,52,R,ugm-3
02-01-2004,03:00,14,R,ugm-3 (GRAV EQ),16,R,ugm-3,40,R,ugm-3,65,R,ugm-3
02-01-2004,04:00,12,R,ugm-3 (GRAV EQ),15,R,ugm-3,32,R,ugm-3,55,R,ugm-3
02-01-2004,05:00,9,R,ugm-3 (GRAV EQ),10,R,ugm-3,27,R,ugm-3,42,R,ugm-3
02-01-2004,06:00,12,R,ugm-3 (GRAV EQ),33,R,ugm-3,40,R,ugm-3,90,R,ugm-3
02-01-2004,07:00,17,R,ugm-3 (GRAV EQ),70,R,ugm-3,59,R,ugm-3,166,R,ugm-3
02-01-2004,08:00,20,R,ugm-3 (GRAV EQ),53,R,ugm-3,52,R,ugm-3,132,R,ugm-3
02-01-2004,09:00,18,R,ugm-3 (GRAV EQ),29,R,ugm-3,46,R,ugm-3,90,R,ugm-3
02-01-2004,10:00,25,R,ugm-3 (GRAV EQ),29,R,ugm-3,44,R,ugm-3,88,R,ugm-3
02-01-2004,11:00,21,R,ugm-3 (GRAV EQ),36,R,ugm-3,48,R,ugm-3,103,R,ugm-3
02-01-2004,12:00,31,R,ugm-3 (GRAV EQ),74,R,ugm-3,57,R,ugm-3,170,R,ugm-3
02-01-2004,13:00,30,R,ugm-3 (GRAV EQ),34,R,ugm-3,42,R,ugm-3,94,R,ugm-3
02-01-2004,14:00,27,R,ugm-3 (GRAV EQ),26,R,ugm-3,40,R,ugm-3,80,R,ugm-3
02-01-2004,15:00,25,R,ugm-3 (GRAV EQ),29,R,ugm-3,40,R,ugm-3,84,R,ugm-3
02-01-2004,16:00,31,R,ugm-3 (GRAV EQ),38,R,ugm-3,50,R,ugm-3,107,R,ugm-3
02-01-2004,17:00,36,R,ugm-3 (GRAV EQ),43,R,ugm-3,57,R,ugm-3,122,R,ugm-3
02-01-2004,18:00,25,R,ugm-3 (GRAV EQ),34,R,ugm-3,57,R,ugm-3,109,R,ugm-3
02-01-2004,19:00,29,R,ugm-3 (GRAV EQ),53,R,ugm-3,71,R,ugm-3,151,R,ugm-3
02-01-2004,20:00,35,R,ugm-3 (GRAV EQ),68,R,ugm-3,73,R,ugm-3,176,R,ugm-3
02-01-2004,21:00,38,R,ugm-3 (GRAV EQ),70,R,ugm-3,73,R,ugm-3,180,R,ugm-3
02-01-2004,22:00,38,R,ugm-3 (GRAV EQ),76,R,ugm-3,76,R,ugm-3,193,R,ugm-3
02-01-2004,23:00,34,R,ugm-3 (GRAV EQ),74,R,ugm-3,69,R,ugm-3,181,R,ugm-3
02-01-2004,24:00,34,R,ugm-3 (GRAV EQ),93,R,ugm-3,71,R,ugm-3,212,R,ugm-3
03-01-2004,01:00,35,R,ugm-3 (GRAV EQ),105,R,ugm-3,71,R,ugm-3,231,R,ugm-3
03-01-2004,02:00,34,R,ugm-3 (GRAV EQ),108,R,ugm-3,67,R,ugm-3,231,R,ugm-3
03-01-2004,03:00,29,R,ugm-3 (GRAV EQ),25,R,ugm-3,61,R,ugm-3,99,R,ugm-3
03-01-2004,04:00,25,R,ugm-3 (GRAV EQ),30,R,ugm-3,57,R,ugm-3,103,R,ugm-3
03-01-2004,05:00,26,R,ugm-3 (GRAV EQ),29,R,ugm-3,55,R,ugm-3,99,R,ugm-3
03-01-2004,06:00,27,R,ugm-3 (GRAV EQ),33,R,ugm-3,55,R,ugm-3,105,R,ugm-3
03-01-2004,07:00,36,R,ugm-3 (GRAV EQ),44,R,ugm-3,53,R,ugm-3,120,R,ugm-3
03-01-2004,08:00,39,R,ugm-3 (GRAV EQ),59,R,ugm-3,55,R,ugm-3,145,R,ugm-3
03-01-2004,09:00,43,R,ugm-3 (GRAV EQ),85,R,ugm-3,59,R,ugm-3,189,R,ugm-3
03-01-2004,10:00,43,R,ugm-3 (GRAV EQ),91,R,ugm-3,59,R,ugm-3,199,R,ugm-3
03-01-2004,11:00,43,R,ugm-3 (GRAV EQ),100,R,ugm-3,63,R,ugm-3,216,R,ugm-3
03-01-2004,12:00,48,R,ugm-3 (GRAV EQ),116,R,ugm-3,63,R,ugm-3,241,R,ugm-3
03-01-2004,13:00,38,R,ugm-3 (GRAV EQ),78,R,ugm-3,57,R,ugm-3,176,R,ugm-3
03-01-2004,14:00,35,R,ugm-3 (GRAV EQ),71,R,ugm-3,61,R,ugm-3,170,R,ugm-3
03-01-2004,15:00,35,R,ugm-3 (GRAV EQ),61,R,ugm-3,59,R,ugm-3,153,R,ugm-3
03-01-2004,16:00,34,R,ugm-3 (GRAV EQ),73,R,ugm-3,63,R,ugm-3,174,R,ugm-3
03-01-2004,17:00,36,R,ugm-3 (GRAV EQ),80,R,ugm-3,65,R,ugm-3,187,R,ugm-3
03-01-2004,18:00,35,R,ugm-3 (GRAV EQ),75,R,ugm-3,67,R,ugm-3,181,R,ugm-3
03-01-2004,19:00,34,R,ugm-3 (GRAV EQ),71,R,ugm-3,65,R,ugm-3,174,R,ugm-3
03-01-2004,20:00,38,R,ugm-3 (GRAV EQ),44,R,ugm-3,61,R,ugm-3,128,R,ugm-3
03-01-2004,21:00,43,R,ugm-3 (GRAV EQ),39,R,ugm-3,55,R,ugm-3,115,R,ugm-3
03-01-2004,22:00,46,R,ugm-3 (GRAV EQ),46,R,ugm-3,53,R,ugm-3,124,R,ugm-3
03-01-2004,23:00,42,R,ugm-3 (GRAV EQ),65,R,ugm-3,55,R,ugm-3,155,R,ugm-3
03-01-2004,24:00,27,R,ugm-3 (GRAV EQ),45,R,ugm-3,44,R,ugm-3,113,R,ugm-3
04-01-2004,01:00,20,R,ugm-3 (GRAV EQ),29,R,ugm-3,44,R,ugm-3,88,R,ugm-3
04-01-2004,02:00,18,R,ugm-3 (GRAV EQ),16,R,ugm-3,40,R,ugm-3,65,R,ugm-3
04-01-2004,03:00,17,R,ugm-3 (GRAV EQ),16,R,ugm-3,50,R,ugm-3,74,R,ugm-3
04-01-2004,04:00,17,R,ugm-3 (GRAV EQ),15,R,ugm-3,46,R,ugm-3,69,R,ugm-3
04-01-2004,05:00,17,R,ugm-3 (GRAV EQ),6,R,ugm-3,42,R,ugm-3,52,R,ugm-3
04-01-2004,06:00,17,R,ugm-3 (GRAV EQ),8,R,ugm-3,42,R,ugm-3,53,R,ugm-3
04-01-2004,07:00,18,R,ugm-3 (GRAV EQ),19,R,ugm-3,50,R,ugm-3,78,R,ugm-3
04-01-2004,08:00,22,R,ugm-3 (GRAV EQ),64,R,ugm-3,61,R,ugm-3,159,R,ugm-3
04-01-2004,09:00,29,R,ugm-3 (GRAV EQ),80,R,ugm-3,65,R,ugm-3,187,R,ugm-3
04-01-2004,10:00,30,R,ugm-3 (GRAV EQ),90,R,ugm-3,61,R,ugm-3,199,R,ugm-3
04-01-2004,11:00,36,R,ugm-3 (GRAV EQ),143,R,ugm-3,74,R,ugm-3,292,R,ugm-3
04-01-2004,12:00,38,R,ugm-3 (GRAV EQ),135,R,ugm-3,69,R,ugm-3,275,R,ugm-3
04-01-2004,13:00,35,R,ugm-3 (GRAV EQ),59,R,ugm-3,55,R,ugm-3,145,R,ugm-3
04-01-2004,14:00,34,R,ugm-3 (GRAV EQ),55,R,ugm-3,57,R,ugm-3,141,R,ugm-3
04-01-2004,15:00,35,R,ugm-3 (GRAV EQ),48,R,ugm-3,55,R,ugm-3,128,R,ugm-3
04-01-2004,16:00,35,R,ugm-3 (GRAV EQ),53,R,ugm-3,59,R,ugm-3,139,R,ugm-3
04-01-2004,17:00,35,R,ugm-3 (GRAV EQ),69,R,ugm-3,67,R,ugm-3,172,R,ugm-3
04-01-2004,18:00,40,R,ugm-3 (GRAV EQ),100,R,ugm-3,71,R,ugm-3,223,R,ugm-3
04-01-2004,19:00,34,R,ugm-3 (GRAV EQ),68,R,ugm-3,67,R,ugm-3,170,R,ugm-3
04-01-2004,20:00,36,R,ugm-3 (GRAV EQ),99,R,ugm-3,78,R,ugm-3,229,R,ugm-3
04-01-2004,21:00,42,R,ugm-3 (GRAV EQ),101,R,ugm-3,80,R,ugm-3,235,R,ugm-3
04-01-2004,22:00,42,R,ugm-3 (GRAV EQ),80,R,ugm-3,73,R,ugm-3,195,R,ugm-3
04-01-2004,23:00,38,R,ugm-3 (GRAV EQ),65,R,ugm-3,67,R,ugm-3,166,R,ugm-3
04-01-2004,24:00,36,R,ugm-3 (GRAV EQ),58,R,ugm-3,63,R,ugm-3,151,R,ugm-3
05-01-2004,01:00,31,R,ugm-3 (GRAV EQ),28,R,ugm-3,53,R,ugm-3,96,R,ugm-3
05-01-2004,02:00,29,R,ugm-3 (GRAV EQ),29,R,ugm-3,50,R,ugm-3,94,R,ugm-3
05-01-2004,03:00,27,R,ugm-3 (GRAV EQ),10,R,ugm-3,55,R,ugm-3,71,R,ugm-3
05-01-2004,04:00,25,R,ugm-3 (GRAV EQ),6,R,ugm-3,44,R,ugm-3,53,R,ugm-3
05-01-2004,05:00,23,R,ugm-3 (GRAV EQ),8,R,ugm-3,42,R,ugm-3,53,R,ugm-3
05-01-2004,06:00,23,R,ugm-3 (GRAV EQ),20,R,ugm-3,50,R,ugm-3,80,R,ugm-3
05-01-2004,07:00,25,R,ugm-3 (GRAV EQ),41,R,ugm-3,59,R,ugm-3,122,R,ugm-3
05-01-2004,08:00,29,R,ugm-3 (GRAV EQ),71,R,ugm-3,69,R,ugm-3,178,R,ugm-3
05-01-2004,09:00,29,R,ugm-3 (GRAV EQ),81,R,ugm-3,67,R,ugm-3,191,R,ugm-3
05-01-2004,10:00,29,R,ugm-3 (GRAV EQ),115,R,ugm-3,80,R,ugm-3,256,R,ugm-3
05-01-2004,11:00,35,R,ugm-3 (GRAV EQ),115,R,ugm-3,82,R,ugm-3,258,R,ugm-3
05-01-2004,12:00,33,R,ugm-3 (GRAV EQ),131,R,ugm-3,86,R,ugm-3,287,R,ugm-3
05-01-2004,13:00,35,R,ugm-3 (GRAV EQ),134,R,ugm-3,88,R,ugm-3,292,R,ugm-3
05-01-2004,14:00,30,R,ugm-3 (GRAV EQ),105,R,ugm-3,80,R,ugm-3,241,R,ugm-3
05-01-2004,15:00,,,,134,R,ugm-3,86,R,ugm-3,290,R,ugm-3
05-01-2004,16:00,,,,,,,,,,,,
05-01-2004,17:00,,,,,,,,,,,,
05-01-2004,18:00,,,,,,,,,,,,
05-01-2004,19:00,18,R,ugm-3 (GRAV EQ),,,,,,,,,
05-01-2004,20:00,18,R,ugm-3 (GRAV EQ),,,,,,,,,
05-01-2004,21:00,9,R,ugm-3 (GRAV EQ),,,,,,,,,
05-01-2004,22:00,10,R,ugm-3 (GRAV EQ),,,,,,,,,
05-01-2004,23:00,23,R,ugm-3 (GRAV EQ),,,,,,,,,
05-01-2004,24:00,16,R,ugm-3 (GRAV EQ),,,,,,,,,
06-01-2004,01:00,14,R,ugm-3 (GRAV EQ),,,,,,,,,
06-01-2004,02:00,17,R,ugm-3 (GRAV EQ),,,,,,,,,
06-01-2004,03:00,18,R,ugm-3 (GRAV EQ),,,,,,,,,
06-01-2004,04:00,17,R,ugm-3 (GRAV EQ),,,,,,,,,
06-01-2004,05:00,17,R,ugm-3 (GRAV EQ),,,,,,,,,
06-01-2004,06:00,14,R,ugm-3 (GRAV EQ),,,,,,,,,
06-01-2004,07:00,14,R,ugm-3 (GRAV EQ),,,,,,,,,
06-01-2004,08:00,22,R,ugm-3 (GRAV EQ),,,,,,,,,
06-01-2004,09:00,25,R,ugm-3 (GRAV EQ),,,,,,,,,
06-01-2004,10:00,14,R,ugm-3 (GRAV EQ),,,,,,,,,
06-01-2004,11:00,18,R,ugm-3 (GRAV EQ),,,,,,,,,
06-01-2004,12:00,13,R,ugm-3 (GRAV EQ),,,,,,,,,
06-01-2004,13:00,14,R,ugm-3 (GRAV EQ),,,,,,,,,
06-01-2004,14:00,22,R,ugm-3 (GRAV EQ),,,,,,,,,
06-01-2004,15:00,27,R,ugm-3 (GRAV EQ),,,,,,,,,
06-01-2004,16:00,35,R,ugm-3 (GRAV EQ),,,,,,,,,
06-01-2004,17:00,40,R,ugm-3 (GRAV EQ),,,,,,,,,
06-01-2004,18:00,36,R,ugm-3 (GRAV EQ),,,,,,,,,
06-01-2004,19:00,42,R,ugm-3 (GRAV EQ),,,,,,,,,
06-01-2004,20:00,40,R,ugm-3 (GRAV EQ),,,,,,,,,
06-01-2004,21:00,36,R,ugm-3 (GRAV EQ),,,,,,,,,
06-01-2004,22:00,35,R,ugm-3 (GRAV EQ),,,,,,,,,
06-01-2004,23:00,40,R,ugm-3 (GRAV EQ),,,,,,,,,
06-01-2004,24:00,43,R,ugm-3 (GRAV EQ),,,,,,,,,
07-01-2004,01:00,35,R,ugm-3 (GRAV EQ),,,,,,,,,
07-01-2004,02:00,22,R,ugm-3 (GRAV EQ),,,,,,,,,
07-01-2004,03:00,21,R,ugm-3 (GRAV EQ),,,,,,,,,
07-01-2004,04:00,17,R,ugm-3 (GRAV EQ),,,,,,,,,
07-01-2004,05:00,16,R,ugm-3 (GRAV EQ),,,,,,,,,
07-01-2004,06:00,18,R,ugm-3 (GRAV EQ),,,,,,,,,
07-01-2004,07:00,23,R,ugm-3 (GRAV EQ),,,,,,,,,
07-01-2004,08:00,38,R,ugm-3 (GRAV EQ),,,,,,,,,
07-01-2004,09:00,39,R,ugm-3 (GRAV EQ),,,,,,,,,
07-01-2004,10:00,38,R,ugm-3 (GRAV EQ),,,,,,,,,
07-01-2004,11:00,33,R,ugm-3 (GRAV EQ),,,,,,,,,
07-01-2004,12:00,27,R,ugm-3 (GRAV EQ),,,,,,,,,
07-01-2004,13:00,29,R,ugm-3 (GRAV EQ),,,,,,,,,
07-01-2004,14:00,31,R,ugm-3 (GRAV EQ),,,,,,,,,
07-01-2004,15:00,31,R,ugm-3 (GRAV EQ),,,,,,,,,
07-01-2004,16:00,31,R,ugm-3 (GRAV EQ),,,,,,,,,
07-01-2004,17:00,34,R,ugm-3 (GRAV EQ),,,,,,,,,
07-01-2004,18:00,38,R,ugm-3 (GRAV EQ),,,,,,,,,
07-01-2004,19:00,36,R,ugm-3 (GRAV EQ),,,,,,,,,
07-01-2004,20:00,34,R,ugm-3 (GRAV EQ),,,,,,,,,
07-01-2004,21:00,34,R,ugm-3 (GRAV EQ),,,,,,,,,
07-01-2004,22:00,36,R,ugm-3 (GRAV EQ),,,,,,,,,
07-01-2004,23:00,43,R,ugm-3 (GRAV EQ),,,,,,,,,
07-01-2004,24:00,34,R,ugm-3 (GRAV EQ),,,,,,,,,
08-01-2004,01:00,21,R,ugm-3 (GRAV EQ),,,,,,,,,
08-01-2004,02:00,14,R,ugm-3 (GRAV EQ),,,,,,,,,
08-01-2004,03:00,17,R,ugm-3 (GRAV EQ),,,,,,,,,
08-01-2004,04:00,27,R,ugm-3 (GRAV EQ),,,,,,,,,
08-01-2004,05:00,30,R,ugm-3 (GRAV EQ),,,,,,,,,
08-01-2004,06:00,31,R,ugm-3 (GRAV EQ),,,,,,,,,
08-01-2004,07:00,27,R,ugm-3 (GRAV EQ),,,,,,,,,
08-01-2004,08:00,25,R,ugm-3 (GRAV EQ),,,,,,,,,
08-01-2004,09:00,18,R,ugm-3 (GRAV EQ),,,,,,,,,
08-01-2004,10:00,17,R,ugm-3 (GRAV EQ),,,,,,,,,
08-01-2004,11:00,23,R,ugm-3 (GRAV EQ),,,,,,,,,
08-01-2004,12:00,26,R,ugm-3 (GRAV EQ),,,,,,,,,
08-01-2004,13:00,31,R,ugm-3 (GRAV EQ),,,,,,,,,
08-01-2004,14:00,29,R,ugm-3 (GRAV EQ),,,,,,,,,
08-01-2004,15:00,22,R,ugm-3 (GRAV EQ),,,,,,,,,
08-01-2004,16:00,29,R,ugm-3 (GRAV EQ),,,,,,,,,
08-01-2004,17:00,31,R,ugm-3 (GRAV EQ),,,,,,,,,
08-01-2004,18:00,23,R,ugm-3 (GRAV EQ),,,,,,,,,
08-01-2004,19:00,26,R,ugm-3 (GRAV EQ),,,,,,,,,
08-01-2004,20:00,25,R,ugm-3 (GRAV EQ),,,,,,,,,
08-01-2004,21:00,22,R,ugm-3 (GRAV EQ),,,,,,,,,
08-01-2004,22:00,20,R,ugm-3 (GRAV EQ),,,,,,,,,
08-01-2004,23:00,22,R,ugm-3 (GRAV EQ),,,,,,,,,
08-01-2004,24:00,21,R,ugm-3 (GRAV EQ),,,,,,,,,
09-01-2004,01:00,20,R,ugm-3 (GRAV EQ),,,,,,,,,
09-01-2004,02:00,20,R,ugm-3 (GRAV EQ),,,,,,,,,
09-01-2004,03:00,17,R,ugm-3 (GRAV EQ),,,,,,,,,
09-01-2004,04:00,16,R,ugm-3 (GRAV EQ),,,,,,,,,
09-01-2004,05:00,14,R,ugm-3 (GRAV EQ),,,,,,,,,
09-01-2004,06:00,17,R,ugm-3 (GRAV EQ),,,,,,,,,
09-01-2004,07:00,21,R,ugm-3 (GRAV EQ),,,,,,,,,
09-01-2004,08:00,25,R,ugm-3 (GRAV EQ),,,,,,,,,
09-01-2004,09:00,31,R,ugm-3 (GRAV EQ),,,,,,,,,
09-01-2004,10:00,34,R,ugm-3 (GRAV EQ),,,,,,,,,
09-01-2004,11:00,30,R,ugm-3 (GRAV EQ),,,,,,,,,
09-01-2004,12:00,25,R,ugm-3 (GRAV EQ),,,,,,,,,
09-01-2004,13:00,26,R,ugm-3 (GRAV EQ),,,,,,,,,
09-01-2004,14:00,30,R,ugm-3 (GRAV EQ),,,,,,,,,
09-01-2004,15:00,29,R,ugm-3 (GRAV EQ),,,,,,,,,
09-01-2004,16:00,23,R,ugm-3 (GRAV EQ),,,,,,,,,
09-01-2004,17:00,21,R,ugm-3 (GRAV EQ),,,,,,,,,
09-01-2004,18:00,23,R,ugm-3 (GRAV EQ),,,,,,,,,
09-01-2004,19:00,25,R,ugm-3 (GRAV EQ),,,,,,,,,
09-01-2004,20:00,25,R,ugm-3 (GRAV EQ),,,,,,,,,
09-01-2004,21:00,25,R,ugm-3 (GRAV EQ),,,,,,,,,
09-01-2004,22:00,27,R,ugm-3 (GRAV EQ),,,,,,,,,
09-01-2004,23:00,29,R,ugm-3 (GRAV EQ),,,,,,,,,
09-01-2004,24:00,31,R,ugm-3 (GRAV EQ),,,,,,,,,
10-01-2004,01:00,33,R,ugm-3 (GRAV EQ),,,,,,,,,
10-01-2004,02:00,33,R,ugm-3 (GRAV EQ),,,,,,,,,
10-01-2004,03:00,30,R,ugm-3 (GRAV EQ),,,,,,,,,
10-01-2004,04:00,27,R,ugm-3 (GRAV EQ),,,,,,,,,
10-01-2004,05:00,27,R,ugm-3 (GRAV EQ),,,,,,,,,
10-01-2004,06:00,30,R,ugm-3 (GRAV EQ),,,,,,,,,
10-01-2004,07:00,36,R,ugm-3 (GRAV EQ),,,,,,,,,
10-01-2004,08:00,43,R,ugm-3 (GRAV EQ),,,,,,,,,
10-01-2004,09:00,36,R,ugm-3 (GRAV EQ),,,,,,,,,
10-01-2004,10:00,33,R,ugm-3 (GRAV EQ),,,,,,,,,
10-01-2004,11:00,26,R,ugm-3 (GRAV EQ),,,,,,,,,
10-01-2004,12:00,31,R,ugm-3 (GRAV EQ),,,,,,,,,
10-01-2004,13:00,35,R,ugm-3 (GRAV EQ),,,,,,,,,
10-01-2004,14:00,38,R,ugm-3 (GRAV EQ),,,,,,,,,
10-01-2004,15:00,38,R,ugm-3 (GRAV EQ),,,,,,,,,
10-01-2004,16:00,48,R,ugm-3 (GRAV EQ),,,,,,,,,
10-01-2004,17:00,51,R,ugm-3 (GRAV EQ),,,,,,,,,
10-01-2004,18:00,61,R,ugm-3 (GRAV EQ),,,,,,,,,
10-01-2004,19:00,59,R,ugm-3 (GRAV EQ),,,,,,,,,
10-01-2004,20:00,48,R,ugm-3 (GRAV EQ),,,,,,,,,
10-01-2004,21:00,36,R,ugm-3 (GRAV EQ),,,,,,,,,
10-01-2004,22:00,27,R,ugm-3 (GRAV EQ),,,,,,,,,
10-01-2004,23:00,21,R,ugm-3 (GRAV EQ),,,,,,,,,
10-01-2004,24:00,20,R,ugm-3 (GRAV EQ),,,,,,,,,
11-01-2004,01:00,27,R,ugm-3 (GRAV EQ),,,,,,,,,
11-01-2004,02:00,26,R,ugm-3 (GRAV EQ),,,,,,,,,
11-01-2004,03:00,12,R,ugm-3 (GRAV EQ),,,,,,,,,
11-01-2004,04:00,7,R,ugm-3 (GRAV EQ),,,,,,,,,
11-01-2004,05:00,4,R,ugm-3 (GRAV EQ),,,,,,,,,
11-01-2004,06:00,3,R,ugm-3 (GRAV EQ),,,,,,,,,
11-01-2004,07:00,4,R,ugm-3 (GRAV EQ),,,,,,,,,
11-01-2004,08:00,7,R,ugm-3 (GRAV EQ),,,,,,,,,
11-01-2004,09:00,7,R,ugm-3 (GRAV EQ),,,,,,,,,
11-01-2004,10:00,5,R,ugm-3 (GRAV EQ),,,,,,,,,
11-01-2004,11:00,14,R,ugm-3 (GRAV EQ),,,,,,,,,
11-01-2004,12:00,21,R,ugm-3 (GRAV EQ),,,,,,,,,
11-01-2004,13:00,12,R,ugm-3 (GRAV EQ),,,,,,,,,
11-01-2004,14:00,16,R,ugm-3 (GRAV EQ),,,,,,,,,
11-01-2004,15:00,18,R,ugm-3 (GRAV EQ),,,,,,,,,
11-01-2004,16:00,20,R,ugm-3 (GRAV EQ),,,,,,,,,
11-01-2004,17:00,12,R,ugm-3 (GRAV EQ),,,,,,,,,
11-01-2004,18:00,12,R,ugm-3 (GRAV EQ),,,,,,,,,
11-01-2004,19:00,13,R,ugm-3 (GRAV EQ),,,,,,,,,
11-01-2004,20:00,10,R,ugm-3 (GRAV EQ),,,,,,,,,
11-01-2004,21:00,13,R,ugm-3 (GRAV EQ),,,,,,,,,
11-01-2004,22:00,10,R,ugm-3 (GRAV EQ),,,,,,,,,
11-01-2004,23:00,13,R,ugm-3 (GRAV EQ),,,,,,,,,
11-01-2004,24:00,16,R,ugm-3 (GRAV EQ),,,,,,,,,
12-01-2004,01:00,17,R,ugm-3 (GRAV EQ),,,,,,,,,
12-01-2004,02:00,17,R,ugm-3 (GRAV EQ),,,,,,,,,
12-01-2004,03:00,20,R,ugm-3 (GRAV EQ),,,,,,,,,
12-01-2004,04:00,25,R,ugm-3 (GRAV EQ),,,,,,,,,
12-01-2004,05:00,30,R,ugm-3 (GRAV EQ),,,,,,,,,
12-01-2004,06:00,31,R,ugm-3 (GRAV EQ),,,,,,,,,
12-01-2004,07:00,30,R,ugm-3 (GRAV EQ),,,,,,,,,
12-01-2004,08:00,29,R,ugm-3 (GRAV EQ),,,,,,,,,
12-01-2004,09:00,36,R,ugm-3 (GRAV EQ),,,,,,,,,
12-01-2004,10:00,40,R,ugm-3 (GRAV EQ),,,,,,,,,
12-01-2004,11:00,35,R,ugm-3 (GRAV EQ),,,,,,,,,
12-01-2004,12:00,48,R,ugm-3 (GRAV EQ),,,,,,,,,
12-01-2004,13:00,52,R,ugm-3 (GRAV EQ),,,,,,,,,
12-01-2004,14:00,26,R,ugm-3 (GRAV EQ),,,,,,,,,
12-01-2004,15:00,14,R,ugm-3 (GRAV EQ),,,,,,,,,
12-01-2004,16:00,17,R,ugm-3 (GRAV EQ),,,,,,,,,
12-01-2004,17:00,22,R,ugm-3 (GRAV EQ),,,,,,,,,
12-01-2004,18:00,29,R,ugm-3 (GRAV EQ),,,,,,,,,
12-01-2004,19:00,30,R,ugm-3 (GRAV EQ),,,,,,,,,
12-01-2004,20:00,36,R,ugm-3 (GRAV EQ),,,,,,,,,
12-01-2004,21:00,35,R,ugm-3 (GRAV EQ),,,,,,,,,
12-01-2004,22:00,31,R,ugm-3 (GRAV EQ),,,,,,,,,
12-01-2004,23:00,27,R,ugm-3 (GRAV EQ),,,,,,,,,
12-01-2004,24:00,23,R,ugm-3 (GRAV EQ),,,,,,,,,
13-01-2004,01:00,12,R,ugm-3 (GRAV EQ),,,,,,,,,
13-01-2004,02:00,5,R,ugm-3 (GRAV EQ),,,,,,,,,
13-01-2004,03:00,7,R,ugm-3 (GRAV EQ),,,,,,,,,
13-01-2004,04:00,10,R,ugm-3 (GRAV EQ),,,,,,,,,
13-01-2004,05:00,12,R,ugm-3 (GRAV EQ),,,,,,,,,
13-01-2004,06:00,23,R,ugm-3 (GRAV EQ),,,,,,,,,
13-01-2004,07:00,29,R,ugm-3 (GRAV EQ),,,,,,,,,
13-01-2004,08:00,40,R,ugm-3 (GRAV EQ),,,,,,,,,
13-01-2004,09:00,38,R,ugm-3 (GRAV EQ),,,,,,,,,
13-01-2004,10:00,35,R,ugm-3 (GRAV EQ),,,,,,,,,
13-01-2004,11:00,25,R,ugm-3 (GRAV EQ),,,,,,,,,
13-01-2004,12:00,21,R,ugm-3 (GRAV EQ),,,,,,,,,
13-01-2004,13:00,22,R,ugm-3 (GRAV EQ),,,,,,,,,
13-01-2004,14:00,22,R,ugm-3 (GRAV EQ),,,,,,,,,
13-01-2004,15:00,23,R,ugm-3 (GRAV EQ),,,,,,,,,
13-01-2004,16:00,23,R,ugm-3 (GRAV EQ),,,,,,,,,
13-01-2004,17:00,29,R,ugm-3 (GRAV EQ),,,,,,,,,
13-01-2004,18:00,36,R,ugm-3 (GRAV EQ),,,,,,,,,
13-01-2004,19:00,34,R,ugm-3 (GRAV EQ),,,,,,,,,
13-01-2004,20:00,31,R,ugm-3 (GRAV EQ),,,,,,,,,
13-01-2004,21:00,25,R,ugm-3 (GRAV EQ),,,,,,,,,
13-01-2004,22:00,21,R,ugm-3 (GRAV EQ),,,,,,,,,
13-01-2004,23:00,17,R,ugm-3 (GRAV EQ),,,,,,,,,
13-01-2004,24:00,14,R,ugm-3 (GRAV EQ),,,,,,,,,
14-01-2004,01:00,16,R,ugm-3 (GRAV EQ),,,,,,,,,
14-01-2004,02:00,17,R,ugm-3 (GRAV EQ),,,,,,,,,
14-01-2004,03:00,21,R,ugm-3 (GRAV EQ),,,,,,,,,
14-01-2004,04:00,18,R,ugm-3 (GRAV EQ),,,,,,,,,
14-01-2004,05:00,16,R,ugm-3 (GRAV EQ),,,,,,,,,
14-01-2004,06:00,17,R,ugm-3 (GRAV EQ),,,,,,,,,
14-01-2004,07:00,25,R,ugm-3 (GRAV EQ),,,,,,,,,
14-01-2004,08:00,30,R,ugm-3 (GRAV EQ),,,,,,,,,
14-01-2004,09:00,26,R,ugm-3 (GRAV EQ),,,,,,,,,
14-01-2004,10:00,42,R,ugm-3 (GRAV EQ),,,,,,,,,
14-01-2004,11:00,42,R,ugm-3 (GRAV EQ),,,,,,,,,
14-01-2004,12:00,36,R,ugm-3 (GRAV EQ),,,,,,,,,
14-01-2004,13:00,18,R,ugm-3 (GRAV EQ),,,,,,,,,
14-01-2004,14:00,17,R,ugm-3 (GRAV EQ),,,,,,,,,
14-01-2004,15:00,17,R,ugm-3 (GRAV EQ),,,,,,,,,
14-01-2004,16:00,14,R,ugm-3 (GRAV EQ),,,,,,,,,
14-01-2004,17:00,26,R,ugm-3 (GRAV EQ),,,,,,,,,
14-01-2004,18:00,33,R,ugm-3 (GRAV EQ),,,,,,,,,
14-01-2004,19:00,26,R,ugm-3 (GRAV EQ),,,,,,,,,
14-01-2004,20:00,20,R,ugm-3 (GRAV EQ),,,,,,,,,
14-01-2004,21:00,13,R,ugm-3 (GRAV EQ),,,,,,,,,
14-01-2004,22:00,13,R,ugm-3 (GRAV EQ),,,,,,,,,
14-01-2004,23:00,22,R,ugm-3 (GRAV EQ),,,,,,,,,
14-01-2004,24:00,14,R,ugm-3 (GRAV EQ),,,,,,,,,
15-01-2004,01:00,13,R,ugm-3 (GRAV EQ),,,,,,,,,
15-01-2004,02:00,14,R,ugm-3 (GRAV EQ),,,,,,,,,
15-01-2004,03:00,14,R,ugm-3 (GRAV EQ),,,,,,,,,
15-01-2004,04:00,16,R,ugm-3 (GRAV EQ),,,,,,,,,
15-01-2004,05:00,17,R,ugm-3 (GRAV EQ),,,,,,,,,
15-01-2004,06:00,18,R,ugm-3 (GRAV EQ),,,,,,,,,
15-01-2004,07:00,20,R,ugm-3 (GRAV EQ),,,,,,,,,
15-01-2004,08:00,26,R,ugm-3 (GRAV EQ),,,,,,,,,
15-01-2004,09:00,31,R,ugm-3 (GRAV EQ),,,,,,,,,
15-01-2004,10:00,40,R,ugm-3 (GRAV EQ),,,,,,,,,
15-01-2004,11:00,39,R,ugm-3 (GRAV EQ),,,,,,,,,
15-01-2004,12:00,,,,,,,,,,,,
15-01-2004,13:00,,,,,,,,,,,,
15-01-2004,14:00,,,,,,,,,,,,
15-01-2004,15:00,13,R,ugm-3 (GRAV EQ),,,,,,,,,
15-01-2004,16:00,14,R,ugm-3 (GRAV EQ),,,,,,,,,
15-01-2004,17:00,16,R,ugm-3 (GRAV EQ),,,,,,,,,
15-01-2004,18:00,13,R,ugm-3 (GRAV EQ),,,,,,,,,
15-01-2004,19:00,13,R,ugm-3 (GRAV EQ),,,,,,,,,
15-01-2004,20:00,8,R,ugm-3 (GRAV EQ),,,,,,,,,
15-01-2004,21:00,9,R,ugm-3 (GRAV EQ),,,,,,,,,
15-01-2004,22:00,14,R,ugm-3 (GRAV EQ),,,,,,,,,
15-01-2004,23:00,14,R,ugm-3 (GRAV EQ),,,,,,,,,
15-01-2004,24:00,20,R,ugm-3 (GRAV EQ),,,,,,,,,
16-01-2004,01:00,20,R,ugm-3 (GRAV EQ),,,,,,,,,
16-01-2004,02:00,8,R,ugm-3 (GRAV EQ),,,,,,,,,
16-01-2004,03:00,10,R,ugm-3 (GRAV EQ),,,,,,,,,
16-01-2004,04:00,10,R,ugm-3 (GRAV EQ),,,,,,,,,
16-01-2004,05:00,8,R,ugm-3 (GRAV EQ),,,,,,,,,
16-01-2004,06:00,13,R,ugm-3 (GRAV EQ),,,,,,,,,
16-01-2004,07:00,17,R,ugm-3 (GRAV EQ),,,,,,,,,
16-01-2004,08:00,14,R,ugm-3 (GRAV EQ),,,,,,,,,
16-01-2004,09:00,14,R,ugm-3 (GRAV EQ),,,,,,,,,
16-01-2004,10:00,17,R,ugm-3 (GRAV EQ),,,,,,,,,
16-01-2004,11:00,16,R,ugm-3 (GRAV EQ),,,,,,,,,
16-01-2004,12:00,17,R,ugm-3 (GRAV EQ),,,,,,,,,
16-01-2004,13:00,18,R,ugm-3 (GRAV EQ),,,,,,,,,
16-01-2004,14:00,18,R,ugm-3 (GRAV EQ),,,,,,,,,
16-01-2004,15:00,18,R,ugm-3 (GRAV EQ),,,,,,,,,
16-01-2004,16:00,21,R,ugm-3 (GRAV EQ),,,,,,,,,
16-01-2004,17:00,20,R,ugm-3 (GRAV EQ),,,,,,,,,
16-01-2004,18:00,22,R,ugm-3 (GRAV EQ),,,,,,,,,
16-01-2004,19:00,23,R,ugm-3 (GRAV EQ),,,,,,,,,
16-01-2004,20:00,22,R,ugm-3 (GRAV EQ),,,,,,,,,
16-01-2004,21:00,22,R,ugm-3 (GRAV EQ),,,,,,,,,
16-01-2004,22:00,27,R,ugm-3 (GRAV EQ),,,,,,,,,
16-01-2004,23:00,26,R,ugm-3 (GRAV EQ),,,,,,,,,
16-01-2004,24:00,25,R,ugm-3 (GRAV EQ),,,,,,,,,
17-01-2004,01:00,20,R,ugm-3 (GRAV EQ),,,,,,,,,
17-01-2004,02:00,18,R,ugm-3 (GRAV EQ),,,,,,,,,
17-01-2004,03:00,16,R,ugm-3 (GRAV EQ),,,,,,,,,
17-01-2004,04:00,12,R,ugm-3 (GRAV EQ),,,,,,,,,
17-01-2004,05:00,12,R,ugm-3 (GRAV EQ),,,,,,,,,
17-01-2004,06:00,14,R,ugm-3 (GRAV EQ),,,,,,,,,
17-01-2004,07:00,16,R,ugm-3 (GRAV EQ),,,,,,,,,
17-01-2004,08:00,20,R,ugm-3 (GRAV EQ),,,,,,,,,
17-01-2004,09:00,25,R,ugm-3 (GRAV EQ),,,,,,,,,
17-01-2004,10:00,34,R,ugm-3 (GRAV EQ),,,,,,,,,
17-01-2004,11:00,43,R,ugm-3 (GRAV EQ),,,,,,,,,
17-01-2004,12:00,66,R,ugm-3 (GRAV EQ),,,,,,,,,
17-01-2004,13:00,90,R,ugm-3 (GRAV EQ),,,,,,,,,
17-01-2004,14:00,88,R,ugm-3 (GRAV EQ),,,,,,,,,
17-01-2004,15:00,86,R,ugm-3 (GRAV EQ),,,,,,,,,
17-01-2004,16:00,73,R,ugm-3 (GRAV EQ),,,,,,,,,
17-01-2004,17:00,46,R,ugm-3 (GRAV EQ),,,,,,,,,
17-01-2004,18:00,35,R,ugm-3 (GRAV EQ),,,,,,,,,
17-01-2004,19:00,39,R,ugm-3 (GRAV EQ),,,,,,,,,
17-01-2004,20:00,33,R,ugm-3 (GRAV EQ),,,,,,,,,
17-01-2004,21:00,35,R,ugm-3 (GRAV EQ),,,,,,,,,
17-01-2004,22:00,34,R,ugm-3 (GRAV EQ),,,,,,,,,
17-01-2004,23:00,33,R,ugm-3 (GRAV EQ),,,,,,,,,
17-01-2004,24:00,31,R,ugm-3 (GRAV EQ),,,,,,,,,
18-01-2004,01:00,29,R,ugm-3 (GRAV EQ),,,,,,,,,
18-01-2004,02:00,30,R,ugm-3 (GRAV EQ),,,,,,,,,
18-01-2004,03:00,27,R,ugm-3 (GRAV EQ),,,,,,,,,
18-01-2004,04:00,27,R,ugm-3 (GRAV EQ),,,,,,,,,
18-01-2004,05:00,25,R,ugm-3 (GRAV EQ),,,,,,,,,
18-01-2004,06:00,23,R,ugm-3 (GRAV EQ),,,,,,,,,
18-01-2004,07:00,25,R,ugm-3 (GRAV EQ),,,,,,,,,
18-01-2004,08:00,23,R,ugm-3 (GRAV EQ),,,,,,,,,
18-01-2004,09:00,30,R,ugm-3 (GRAV EQ),,,,,,,,,
18-01-2004,10:00,34,R,ugm-3 (GRAV EQ),,,,,,,,,
18-01-2004,11:00,43,R,ugm-3 (GRAV EQ),,,,,,,,,
18-01-2004,12:00,60,R,ugm-3 (GRAV EQ),,,,,,,,,
18-01-2004,13:00,82,R,ugm-3 (GRAV EQ),,,,,,,,,
18-01-2004,14:00,56,R,ugm-3 (GRAV EQ),,,,,,,,,
18-01-2004,15:00,36,R,ugm-3 (GRAV EQ),,,,,,,,,
18-01-2004,16:00,34,R,ugm-3 (GRAV EQ),,,,,,,,,
18-01-2004,17:00,30,R,ugm-3 (GRAV EQ),,,,,,,,,
18-01-2004,18:00,33,R,ugm-3 (GRAV EQ),,,,,,,,,
18-01-2004,19:00,36,R,ugm-3 (GRAV EQ),,,,,,,,,
18-01-2004,20:00,33,R,ugm-3 (GRAV EQ),,,,,,,,,
18-01-2004,21:00,30,R,ugm-3 (GRAV EQ),,,,,,,,,
18-01-2004,22:00,27,R,ugm-3 (GRAV EQ),,,,,,,,,
18-01-2004,23:00,25,R,ugm-3 (GRAV EQ),,,,,,,,,
18-01-2004,24:00,21,R,ugm-3 (GRAV EQ),,,,,,,,,
19-01-2004,01:00,17,R,ugm-3 (GRAV EQ),,,,,,,,,
19-01-2004,02:00,14,R,ugm-3 (GRAV EQ),,,,,,,,,
19-01-2004,03:00,13,R,ugm-3 (GRAV EQ),,,,,,,,,
19-01-2004,04:00,12,R,ugm-3 (GRAV EQ),,,,,,,,,
19-01-2004,05:00,10,R,ugm-3 (GRAV EQ),,,,,,,,,
19-01-2004,06:00,9,R,ugm-3 (GRAV EQ),,,,,,,,,
19-01-2004,07:00,12,R,ugm-3 (GRAV EQ),,,,,,,,,
19-01-2004,08:00,16,R,ugm-3 (GRAV EQ),,,,,,,,,
19-01-2004,09:00,18,R,ugm-3 (GRAV EQ),,,,,,,,,
19-01-2004,10:00,21,R,ugm-3 (GRAV EQ),,,,,,,,,
19-01-2004,11:00,18,R,ugm-3 (GRAV EQ),,,,,,,,,
19-01-2004,12:00,20,R,ugm-3 (GRAV EQ),,,,,,,,,
19-01-2004,13:00,18,R,ugm-3 (GRAV EQ),,,,,,,,,
19-01-2004,14:00,,,,,,,,,,,,
19-01-2004,15:00,,,,,,,,,,,,
19-01-2004,16:00,,,,,,,,,,,,
19-01-2004,17:00,,,,,,,,,,,,
19-01-2004,18:00,7,R,ugm-3 (GRAV EQ),,,,,,,,,